SCP
0 0 0 0 0 0 0 0 0 0 0 0 0 0 0 0 0 0 0 0 0 0 0 0 1 1 1 1 0 0 0 0 0 0 0 0 0 0 1 1 1 1 1 1
0 0 0 0 0 0 0 0 0 0 0 0 0 0 0 0 0 0 0 0 0 0 0 0 1 1 1 1 1 0 0 0 0 0 0 0 0 0 0 1 2 2 1 1
0 0 0 0 0 0 0 0 0 0 0 0 0 0 0 0 0 0 0 0 0 0 0 0 1 1 1 1 1 1 0 0 0 0 0 0 0 0 0 1 2 2 2 1
0 0 0 0 0 0 0 0 0 0 0 0 0 0 0 0 0 0 0 0 0 0 0 0 0 1 1 1 1 1 1 0 0 0 0 0 0 0 0 1 2 2 1 1
0 0 0 0 0 0 0 0 0 0 0 0 0 0 0 0 0 0 0 0 0 0 0 0 0 1 1 1 1 1 1 0 0 0 0 0 0 0 0 1 1 1 1 1
0 0 0 0 0 0 0 0 0 0 0 0 0 0 0 0 0 0 0 0 0 0 0 0 0 0 1 1 1 1 1 1 0 0 0 0 0 0 0 0 1 0 0 0
0 0 0 0 0 0 0 0 0 0 0 0 0 0 0 0 0 0 0 0 0 0 0 0 0 0 0 0 0 0 0 1 1 0 0 0 0 0 0 0 0 0 0 0
0 0 0 0 0 0 0 0 0 0 0 0 0 0 0 0 0 0 0 0 0 0 0 0 0 0 0 0 0 0 0 0 1 1 0 0 0 0 0 0 0 0 0 1
0 0 0 0 0 0 0 0 0 0 0 0 0 0 0 0 0 0 0 0 0 0 0 0 0 0 0 0 0 0 0 0 1 1 0 0 0 0 0 0 0 0 0 1
0 0 0 0 0 0 0 0 0 0 0 0 0 0 0 0 0 0 0 0 0 0 0 0 0 0 0 0 0 0 0 0 0 0 0 0 0 0 0 0 0 0 0 1
0 0 0 0 0 0 0 0 0 0 0 0 0 0 0 0 0 0 0 0 0 0 0 0 0 0 0 0 0 0 0 0 0 0 0 0 0 0 0 0 0 0 0 1
0 0 0 0 0 0 0 0 0 0 0 0 0 0 0 0 0 0 0 0 0 0 0 0 0 0 0 0 0 0 0 0 0 0 0 0 0 0 0 0 0 0 0 1
0 0 0 0 0 0 0 0 0 0 0 0 0 0 0 0 0 0 0 0 0 0 0 0 0 0 0 0 0 0 0 0 0 0 0 0 0 0 0 0 0 0 0 1
0 0 0 0 0 0 0 0 0 0 0 0 0 0 0 0 0 0 0 0 0 0 0 0 0 0 0 0 0 0 0 0 0 0 0 0 0 0 0 0 0 0 0 0
0 0 0 0 0 0 0 0 0 0 0 0 0 0 0 0 0 0 0 0 0 0 0 0 0 0 0 0 0 0 0 0 0 0 0 0 0 0 0 0 0 0 0 0
0 0 0 0 0 0 0 0 0 0 0 0 0 0 0 0 0 0 0 0 0 0 0 0 0 0 0 0 0 0 0 0 0 0 0 0 0 0 0 0 0 0 0 0
0 0 0 0 0 0 0 0 0 0 0 0 0 0 0 0 0 0 0 0 0 0 0 0 0 0 0 0 0 0 0 0 0 0 0 0 0 0 0 0 0 0 0 0
0 0 0 0 0 0 0 0 0 0 0 0 0 0 0 0 0 0 0 0 0 0 0 0 0 0 0 0 0 0 0 0 0 0 0 0 0 0 0 0 0 0 0 0
0 0 0 0 0 0 0 0 0 0 0 0 0 0 0 0 0 0 0 0 0 0 0 0 0 0 0 0 0 0 0 0 0 0 0 0 0 0 0 0 0 0 0 0
0 0 0 0 0 0 0 0 0 0 0 0 0 0 0 0 0 0 0 0 0 0 0 0 0 0 0 0 0 0 0 0 0 0 0 0 0 0 0 0 0 0 0 0
0 0 0 0 0 0 0 0 0 0 0 0 0 0 0 0 0 0 0 0 0 0 0 0 0 0 0 0 0 0 0 0 0 0 0 0 0 0 0 0 0 0 0 0
0 0 0 0 0 0 0 0 0 0 0 0 0 0 0 0 0 0 0 0 0 0 0 0 0 0 0 0 0 0 0 0 0 0 0 0 0 0 0 0 0 0 0 0
0 0 0 0 0 0 0 0 0 0 0 0 0 0 0 0 0 0 0 0 0 0 0 0 0 0 0 0 0 0 0 0 0 0 0 0 0 0 0 0 0 0 0 0
0 0 0 0 0 0 0 0 0 0 -0 -0 0 0 0 0 0 0 0 0 0 0 0 0 0 0 0 0 0 0 0 0 0 0 0 0 0 0 0 0 0 0 0 0
0 0 0 0 0 0 0 0 0 0 0 0 0 0 0 0 0 0 0 0 0 0 0 0 0 0 0 0 0 0 0 0 0 0 0 0 0 0 0 0 0 0 0 0
0 0 0 0 0 0 0 0 0 0 0 0 0 0 0 0 0 0 0 0 0 0 0 0 0 0 0 0 0 0 0 0 0 0 0 0 0 0 0 0 0 0 0 0
Wind_Speed
2 2 1 1 1 1 2 4 3 3 3 2 3 2 2 3 3 3 4 5 5 5 5 5 6 6 6 6 6 6 5 5 3 2 2 1 2 2 1 1 1 1 1 2
3 3 4 2 0 1 2 4 3 3 3 1 3 2 1 2 2 3 4 4 4 4 5 5 5 6 6 6 6 5 5 5 4 3 2 1 1 1 1 2 2 2 2 1
6 3 3 3 3 2 2 2 2 3 2 1 2 2 4 3 3 4 4 4 4 5 5 6 6 6 6 6 5 5 5 5 4 4 2 2 1 1 2 2 2 2 2 2
5 5 3 4 4 1 1 1 2 3 3 2 3 2 3 4 4 3 3 3 4 4 5 5 6 6 6 6 5 5 5 5 4 4 3 3 2 1 1 1 1 2 2 2
4 5 5 4 3 3 1 0 1 2 1 1 2 2 3 4 3 3 3 4 5 5 5 6 6 6 6 6 5 5 5 5 5 4 4 2 2 2 2 1 2 2 2 3
4 3 4 4 3 1 1 0 1 1 0 1 3 2 2 2 3 4 4 4 5 5 5 5 5 5 5 5 5 5 5 5 5 5 5 4 3 3 4 4 3 2 2 2
3 4 4 4 3 3 2 1 1 0 1 2 2 2 1 2 4 4 4 4 4 4 4 4 5 5 5 6 6 5 5 5 6 5 5 5 4 4 3 4 3 3 3 3
2 3 4 4 3 2 2 2 1 1 1 0 1 2 1 3 5 5 4 4 4 4 4 4 5 5 5 6 6 5 5 5 5 5 5 4 4 3 2 3 3 3 3 3
3 2 2 3 3 3 1 2 2 1 1 1 3 2 2 2 4 4 4 3 3 3 3 4 4 4 5 5 5 5 5 4 4 4 4 4 5 4 4 3 3 2 3 3
3 1 2 2 2 2 2 1 1 0 0 1 2 2 2 3 3 3 2 2 2 2 2 3 3 4 4 4 4 5 4 5 5 5 4 4 4 4 4 3 4 3 3 3
3 1 1 1 2 2 2 1 1 1 1 1 2 2 2 2 3 2 1 1 1 1 2 2 2 3 3 4 4 4 5 5 5 5 5 4 4 4 4 4 4 4 4 4
3 1 1 0 0 2 1 1 1 1 2 2 2 3 1 2 2 2 1 1 1 1 1 2 2 2 3 4 4 4 4 4 4 4 4 4 4 4 4 4 5 4 4 4
3 1 1 1 0 0 1 1 1 0 1 1 2 3 0 1 1 1 1 1 1 1 1 1 2 2 3 3 4 4 4 4 4 4 4 4 4 4 4 5 5 5 4 4
2 1 1 1 1 1 2 2 2 1 2 2 4 5 3 2 1 1 1 1 1 0 1 1 2 2 3 3 4 4 4 4 4 4 4 4 4 4 4 5 5 5 4 4
2 1 1 2 3 2 3 4 3 4 4 4 4 4 5 3 3 2 1 1 0 1 1 1 2 2 3 3 3 4 4 5 4 4 4 4 4 4 5 5 5 5 5 5
1 0 1 3 2 2 4 6 6 6 5 6 6 8 5 3 1 1 2 2 2 1 1 1 1 2 2 3 3 4 4 5 5 4 4 4 4 5 5 5 5 5 5 5
1 1 1 2 2 4 6 7 7 5 5 5 7 7 2 1 2 3 3 3 3 2 1 1 1 1 2 2 3 3 3 4 4 4 4 5 5 5 5 6 5 5 5 5
2 1 1 2 3 3 6 1 3 4 5 6 5 4 3 3 2 2 2 2 2 1 1 1 0 1 2 2 2 3 3 4 4 4 5 5 5 5 5 5 5 6 5 5
1 2 1 0 2 7 5 3 3 3 5 6 7 6 4 1 1 2 2 2 2 2 1 1 0 0 1 2 2 2 3 3 4 4 5 5 5 5 6 6 6 5 5 5
0 1 1 1 2 6 4 2 2 1 5 4 5 5 3 2 2 3 2 2 1 1 1 1 1 1 1 2 2 2 2 3 3 4 5 5 5 5 5 5 5 5 5 5
2 2 3 4 4 9 4 4 3 3 5 1 2 3 4 4 4 1 2 2 2 1 1 1 1 1 1 1 1 1 2 3 3 4 4 5 5 5 5 5 4 5 5 5
7 6 6 5 5 10 5 6 7 6 1 1 1 2 3 3 2 1 2 2 2 1 1 1 1 0 1 1 1 1 2 3 3 3 4 4 4 4 4 4 4 4 4 4
8 8 6 9 10 3 6 6 4 2 1 2 2 2 3 3 3 2 2 2 2 2 1 1 1 0 1 1 1 1 3 2 2 3 3 4 4 4 4 3 4 4 3 3
5 3 3 6 9 6 6 6 5 4 4 3 3 3 3 4 4 3 2 2 2 2 2 1 1 1 1 1 1 1 2 1 1 2 3 3 3 4 3 3 3 3 3 3
7 6 5 8 8 5 7 8 8 6 5 4 3 3 4 4 4 4 3 3 3 2 2 2 2 3 3 2 1 1 1 1 1 2 3 3 3 3 3 3 3 3 3 3
8 10 10 11 8 7 6 4 5 6 7 6 5 5 4 5 5 4 4 3 3 2 2 2 2 3 3 2 2 2 1 1 1 3 3 2 2 2 3 3 4 5 5 7
Wind_Direction
74 68 81 138 257 354 149 141 118 90 63 69 132 157 120 90 72 69 74 74 66 61 55 49 45 46 46 40 34 31 33 24 23 20 1 18 26 21 25 40 40 36 29 25
82 38 2 12 2 10 112 120 122 90 72 66 134 178 139 94 83 70 74 74 65 54 45 43 41 41 41 37 28 25 28 23 19 12 359 352 350 22 14 15 17 11 11 14
72 25 358 49 67 106 120 144 150 130 101 147 146 192 171 137 105 81 70 68 62 54 43 33 34 34 36 32 24 16 18 21 18 12 13 13 21 28 18 4 3 4 6 6
50 16 33 61 38 17 113 77 136 154 158 179 206 215 190 167 135 100 78 62 56 51 46 36 31 29 28 23 19 17 18 21 19 15 15 24 21 11 325 329 334 354 4 3
56 20 30 44 6 6 54 16 204 202 170 150 236 223 198 164 165 132 92 70 55 45 43 38 34 30 24 18 17 14 18 22 16 13 11 13 4 342 334 351 1 3 2 358
76 44 33 356 329 51 99 118 31 342 89 218 213 211 214 176 180 133 94 71 56 46 43 38 30 30 24 19 17 19 22 19 13 13 10 11 1 355 360 2 358 352 349 347
60 57 31 350 15 36 5 81 81 80 219 227 164 205 225 83 76 104 106 86 65 51 44 30 22 25 19 18 14 16 21 17 10 9 10 7 2 3 5 358 357 353 347 350
58 41 23 6 11 342 337 19 87 188 206 316 187 220 163 97 86 87 88 90 77 56 40 26 19 23 19 15 13 12 14 12 8 6 1 0 360 359 4 2 355 351 347 348
33 51 17 12 354 350 31 43 355 348 354 219 218 195 151 108 107 99 92 82 66 51 38 27 19 16 15 12 11 8 6 7 8 2 2 3 1 0 358 357 359 358 353 350
360 43 358 345 315 22 22 40 4 25 230 263 233 227 201 160 157 123 103 89 63 48 32 23 20 16 11 6 6 9 7 10 6 1 360 359 359 360 360 1 359 357 353 353
358 46 352 23 23 8 20 46 353 322 296 257 256 271 28 146 146 138 124 100 85 51 27 22 18 15 10 8 8 8 8 5 2 0 360 357 357 359 3 5 359 352 350 350
355 17 351 110 107 343 357 339 334 199 273 281 275 270 23 89 111 122 116 78 82 60 26 18 8 10 11 7 5 6 4 1 354 351 354 355 356 358 1 360 353 351 351 348
345 43 30 343 251 356 322 300 298 310 274 250 238 250 70 92 107 131 158 157 118 80 11 5 2 2 3 2 1 4 3 356 351 353 357 358 356 356 354 355 352 351 350 349
11 47 148 204 286 337 278 276 266 228 221 241 236 248 269 243 234 253 201 152 143 343 349 348 348 349 1 4 2 0 358 357 356 358 1 1 355 350 349 352 353 351 353 354
29 49 310 295 302 305 280 271 252 233 240 233 252 262 265 252 225 219 201 178 187 331 349 346 340 347 355 0 360 0 358 358 357 1 5 358 351 353 356 355 352 351 354 351
37 59 340 300 291 289 283 271 248 243 246 243 260 273 266 262 209 216 213 205 225 244 271 319 340 350 350 351 353 358 358 355 354 1 360 354 357 358 356 351 350 353 352 348
85 111 20 286 327 339 284 245 217 214 217 212 234 245 251 230 218 218 217 222 228 227 240 271 303 333 347 356 357 356 353 352 356 0 359 0 359 356 350 347 350 350 345 345
130 120 164 308 360 275 243 130 175 213 242 228 242 251 246 239 229 225 203 202 227 224 236 249 301 353 2 11 11 5 0 357 0 1 357 356 357 350 346 348 348 344 341 340
188 171 190 209 280 275 269 217 179 203 270 228 228 244 252 251 306 249 183 174 202 205 208 205 141 28 23 25 16 7 360 357 359 355 351 349 348 342 341 342 340 337 336 335
239 188 199 200 238 252 251 136 110 104 278 247 204 220 218 152 225 249 179 165 184 146 126 108 72 57 39 16 20 10 351 353 351 347 343 341 340 337 335 332 331 333 332 332
176 194 208 214 238 261 239 149 126 175 250 224 182 195 180 189 215 229 144 153 146 126 114 104 106 97 34 17 34 4 350 340 339 343 341 338 336 332 326 327 331 332 331 334
183 181 198 190 216 251 182 150 190 215 184 168 197 199 196 210 218 189 167 169 154 144 127 118 119 56 27 39 51 345 318 330 348 344 337 331 330 327 329 332 332 335 337 336
207 198 191 199 217 230 174 197 207 173 200 214 214 222 200 212 224 218 206 195 190 179 168 140 147 224 13 35 49 278 304 341 350 339 327 323 324 325 326 327 327 332 336 331
229 207 221 252 257 247 232 239 239 219 220 232 229 225 204 217 223 220 213 214 212 199 179 162 160 214 276 302 301 269 309 345 344 315 312 314 317 320 326 322 321 322 323 322
211 176 210 250 263 280 259 232 231 231 225 227 230 222 215 216 225 218 218 222 218 210 188 173 190 221 249 270 276 294 323 346 308 297 299 305 304 307 315 313 308 308 297 302
192 185 192 226 217 200 229 216 206 210 218 217 219 231 227 214 224 222 220 215 206 205 193 196 212 230 247 250 261 274 276 245 264 286 292 294 299 305 308 310 312 308 303 311